Location: Liscomb Game Sanctuary
(45.1633°N, 62.5575°W)
Time: 10:19:47
(UTC-03:00)

Amateur Radio Satellites - All Passes

Search period start: 28 July 2015 09:49
Search period end: 29 July 2015 09:49
Location: Liscomb Game Sanctuary, 45.1633°N, 62.5575°W

Satellite Date Start Highest point End Downlink Frequencies (MHz)
Time Altitude Azimuth
ZACube-1 28 Jul 09:53:30 09:55:38 13° 88° (E) 09:58:00 437.345
GOMX 1 28 Jul 09:53:31 09:57:47 55° 287° (WNW) 10:02:18 467.674
HO-68 28 Jul 09:54:37 10:01:48 71° 104° (ESE) 10:08:59 435.675
AAUSAT CUBESAT 2 28 Jul 09:56:55 10:01:00 46° 98° (E) 10:05:02 437.432
RS-15 28 Jul 10:01:40 10:10:46 25° 257° (WSW) 10:19:31 29.354- 29.394
SO-50 28 Jul 10:02:06 10:05:09 18° 111° (ESE) 10:08:26 436.795
DOVE 4 28 Jul 10:04:07 10:08:32 69° 285° (WNW) 10:13:13 437.250
UWE-3 28 Jul 10:05:54 10:09:31 23° 92° (E) 10:13:16 435.000/436.395/437.385
YUBILEINY 28 Jul 10:11:27 10:15:21 14° 50° (NE) 10:19:48 435.215
CUBEBUG 2 28 Jul 10:11:28 10:15:35 33° 96° (E) 10:19:50 437.445
DELFI C3 28 Jul 10:15:31 10:18:42 22° 93° (E) 10:21:56 145.870
PCSat 28 Jul 10:15:41 10:20:38 39° 113° (ESE) 10:25:41 145.827
FUNcube-1 28 Jul 10:16:15 10:19:44 22° 92° (E) 10:23:22 145.935
M-CUBED/EXP-1 PRIME 28 Jul 10:18:03 10:21:23 26° 262° (W) 10:24:56 437.505
ANTELSAT 28 Jul 10:25:35 10:29:42 47° 71° (ENE) 10:33:59 437.575/2403.000
TIGRISAT 28 Jul 10:25:50 10:29:56 45° 71° (ENE) 10:34:10 435.000
POLYITAN 1 28 Jul 10:29:44 10:32:55 22° 66° (ENE) 10:36:12 437.675
BEESAT 3 28 Jul 10:32:46 10:36:29 34° 242° (WSW) 10:40:06 437.485
Oscar 11 28 Jul 10:36:40 10:40:59 56° 100° (E) 10:45:16 145.826/435.025
CINEMA 3 28 Jul 10:46:46 10:51:14 55° 287° (WNW) 10:55:53 145.822/145.860
COMPASS 1 28 Jul 10:47:00 10:51:03 43° 288° (WNW) 10:55:03 437.405
POPSAT HIP 1 28 Jul 10:48:05 10:51:48 32° 69° (ENE) 10:55:34 437.405
AIST 2 28 Jul 10:48:16 10:52:28 65° 52° (NE) 10:56:35 435.215
CUTE 1.7 + AOD 2 28 Jul 10:50:19 10:54:01 28° 292° (WNW) 10:57:39 437.475
AUBIESAT-1 28 Jul 10:53:31 10:55:39 14° 268° (W) 10:57:40 437.475
QB50P2 28 Jul 10:54:21 10:58:15 38° 70° (ENE) 11:02:11 145.880/145.840
SEEDS 28 Jul 10:54:45 10:58:31 30° 291° (WNW) 11:02:13 437.485
CANX-2 28 Jul 10:58:16 11:01:37 22° 294° (WNW) 11:04:52 2200.000
DX 1 28 Jul 10:59:24 11:02:19 18° 91° (E) 11:05:22 434.975-435.025
BUGSAT 1 28 Jul 11:16:06 11:19:54 39° 71° (ENE) 11:23:42 437.445
HUMSAT D 28 Jul 11:16:11 11:20:14 39° 97° (E) 11:24:18 437.325/437.525
UNISAT 6 28 Jul 11:17:07 11:21:19 50° 261° (W) 11:25:39 437.425
QB50P1 28 Jul 11:23:33 11:27:44 78° 77° (ENE) 11:31:58 145.935-145.965
DUCHIFAT 1 28 Jul 11:23:49 11:27:59 75° 74° (ENE) 11:32:11 145.980
BEESAT 2 28 Jul 11:25:20 11:27:35 14° 249° (WSW) 11:29:40 435.950
NANOSAT C BR1 28 Jul 11:26:39 11:30:50 82° 76° (ENE) 11:35:03 145.865
ZACube-1 28 Jul 11:28:01 11:32:29 68° 286° (WNW) 11:37:01 437.345
AAUSAT CUBESAT 2 28 Jul 11:33:19 11:36:17 18° 295° (WNW) 11:39:07 437.432
Cosmos 2499 28 Jul 11:34:13 11:37:21 12° 311° (NW) 11:40:07 435.465 / 435.565
SO-50 28 Jul 11:40:26 11:45:13 69° 309° (NW) 11:50:09 436.795
UWE-3 28 Jul 11:41:56 11:46:11 39° 289° (WNW) 11:50:27 435.000/436.395/437.385
HO-68 28 Jul 11:43:11 11:49:01 27° 303° (WNW) 11:54:41 435.675
CUBEBUG 2 28 Jul 11:48:16 11:52:12 29° 292° (WNW) 11:56:09 437.445
DELFI C3 28 Jul 11:50:10 11:53:51 33° 290° (WNW) 11:57:29 145.870
AISAT 28 Jul 11:51:42 11:55:49 38° 98° (E) 11:59:58 437.250
FUNcube-1 28 Jul 11:52:00 11:56:13 40° 289° (WNW) 12:00:27 145.935
PCSat 28 Jul 11:59:04 12:04:06 37° 312° (NW) 12:09:08 145.827
Oscar 19 28 Jul 12:00:48 12:02:26 12° 56° (ENE) 12:04:18 437.125/150
O/OREOS (USA 219) 28 Jul 12:01:53 12:06:11 40° 59° (ENE) 12:10:31 437.305
ANTELSAT 28 Jul 12:03:48 12:06:50 18° 270° (W) 12:09:46 437.575/2403.000
TIGRISAT 28 Jul 12:03:56 12:07:00 18° 270° (W) 12:09:59 435.000
POLYITAN 1 28 Jul 12:04:44 12:08:38 37° 263° (W) 12:12:34 437.675
YUBILEINY 28 Jul 12:05:56 12:14:38 60° 75° (ENE) 12:23:22 435.215
50 SAT 28 Jul 12:12:28 12:16:30 78° 104° (ESE) 12:20:27 437.505
UKube-1 28 Jul 12:13:22 12:17:43 84° 288° (WNW) 12:22:02 .
AIST 1 28 Jul 12:13:27 12:16:29 19° 88° (E) 12:19:39
Oscar 11 28 Jul 12:13:56 12:16:46 17° 296° (WNW) 12:19:26 145.826/435.025
CUBEBUG 1 28 Jul 12:19:55 12:24:03 43° 98° (E) 12:28:11 437.445
POPSAT HIP 1 28 Jul 12:24:15 12:27:44 24° 266° (W) 12:31:09 437.405
ESTCUBE 1 28 Jul 12:25:55 12:30:24 60° 101° (E) 12:34:50 437.505/2401.250
AIST 2 28 Jul 12:28:13 12:30:34 14° 249° (WSW) 12:32:44 435.215
QB50P2 28 Jul 12:31:06 12:34:18 20° 268° (W) 12:37:25 145.880/145.840
VELOX 1 28 Jul 12:31:59 12:36:25 84° 287° (WNW) 12:40:50 145.980
DX 1 28 Jul 12:34:41 12:38:52 46° 289° (WNW) 12:43:00 434.975-435.025
Cosmos 2491 28 Jul 12:40:29 12:48:36 46° 88° (E) 12:56:49 435.465 / 435.565
HUMSAT D 28 Jul 12:52:24 12:55:45 22° 294° (WNW) 12:59:02 437.325/437.525
BUGSAT 1 28 Jul 12:52:38 12:55:34 18° 268° (W) 12:58:23 437.445
DUCHIFAT 1 28 Jul 13:03:31 13:04:23 10° 274° (W) 13:05:01 145.980
QB50P1 28 Jul 13:03:46 13:04:14 10° 274° (W) 13:04:27 145.935-145.965
ITAMSAT 1 28 Jul 13:10:51 13:13:36 15° 58° (ENE) 13:16:34 435.822/435.867
SPROUT 28 Jul 13:12:59 13:17:09 49° 99° (E) 13:21:20 437.525
SO-50 28 Jul 13:23:33 13:26:42 17° 330° (NNW) 13:29:49 436.795
AISAT 28 Jul 13:28:42 13:32:13 23° 294° (WNW) 13:35:39 437.250
Oscar 19 28 Jul 13:35:54 13:41:00 75° 73° (ENE) 13:46:08 437.125/150
O/OREOS (USA 219) 28 Jul 13:41:44 13:45:26 24° 256° (WSW) 13:49:02 437.305
TISAT 1 28 Jul 13:42:15 13:46:26 63° 101° (E) 13:50:37 437.305
PCSat 28 Jul 13:47:51 13:49:14 11° 336° (NNW) 13:50:28 145.827
50 SAT 28 Jul 13:49:27 13:50:31 11° 299° (WNW) 13:51:23 437.505
AIST 1 28 Jul 13:49:45 13:53:53 40° 284° (WNW) 13:58:00
Cosmos 2504 28 Jul 13:51:28 13:58:57 38° 69° (ENE) 14:06:50 435.465 / 435.565
UKube-1 28 Jul 13:52:34 13:53:11 10° 301° (WNW) 13:53:36 .
JAS-2 28 Jul 13:54:04 13:58:01 18° 54° (NE) 14:02:29 435.910
BEESAT 28 Jul 13:54:07 13:56:53 16° 89° (E) 13:59:50 436.000
CUBEBUG 1 28 Jul 13:56:56 14:00:10 20° 295° (WNW) 14:03:16 437.445
Gurwin Techsat 1B 28 Jul 14:00:20 14:05:15 41° 68° (ENE) 14:10:15 435.225
YUBILEINY 28 Jul 14:03:26 14:11:03 33° 276° (W) 14:18:27 435.215
ESTCUBE 1 28 Jul 14:03:58 14:06:51 16° 297° (WNW) 14:09:33 437.505/2401.250
VELOX 1 28 Jul 14:11:26 14:12:19 10° 301° (WNW) 14:12:57 145.980
SWISSCUBE 28 Jul 14:13:09 14:17:06 26° 94° (E) 14:21:06 437.505
ITUPSAT 1 28 Jul 14:31:42 14:36:04 35° 96° (E) 14:40:27 437.325
AO-7 28 Jul 14:32:21 14:39:09 30° 54° (NE) 14:46:09 29.400- 29.500
Cosmos 2491 28 Jul 14:37:14 14:45:35 44° 290° (WNW) 14:53:49 435.465 / 435.565
ITAMSAT 1 28 Jul 14:47:14 14:52:28 87° 255° (WSW) 14:57:44 435.822/435.867
SPROUT 28 Jul 14:49:57 14:52:55 18° 296° (WNW) 14:55:45 437.525
Oscar 19 28 Jul 15:18:08 15:21:02 15° 273° (W) 15:23:41 437.125/150
TISAT 1 28 Jul 15:19:27 15:21:46 14° 297° (WNW) 15:23:54 437.305
DANDE 28 Jul 15:29:35 15:31:38 16° 73° (ENE) 15:34:07 436.750
BEESAT 28 Jul 15:30:29 15:35:15 63° 287° (WNW) 15:39:57 436.000
JAS-2 28 Jul 15:36:09 15:42:05 89° 77° (ENE) 15:48:55 435.910
STARS 28 Jul 15:38:55 15:41:57 18° 91° (E) 15:45:06 437.465
Gurwin Techsat 1B 28 Jul 15:40:46 15:45:23 29° 266° (W) 15:49:56 435.225
Cosmos 2504 28 Jul 15:43:29 15:51:29 54° 269° (W) 15:59:42 435.465 / 435.565
SWISSCUBE 28 Jul 15:50:38 15:55:05 38° 291° (WNW) 15:59:28 437.505
KKS-1 28 Jul 15:54:12 15:58:28 42° 98° (E) 16:02:43 437.445
HORYU 2 28 Jul 15:59:42 16:04:06 70° 74° (ENE) 16:08:35 437.375
ITUPSAT 1 28 Jul 16:09:44 16:13:53 29° 294° (WNW) 16:17:56 437.325
CUSAT 1 28 Jul 16:18:55 16:22:33 81° 262° (W) 16:27:22 437.405
AO-7 28 Jul 16:22:57 16:31:20 75° 254° (WSW) 16:39:45 29.400- 29.500
ITAMSAT 1 28 Jul 16:30:54 16:32:51 12° 275° (W) 16:34:29 435.822/435.867
GONETS M04 28 Jul 16:46:59 16:54:08 28° 63° (ENE) 17:01:32
SO-50 28 Jul 16:51:11 16:52:19 11° 19° (NNE) 16:53:32 436.795
DANDE 28 Jul 17:11:43 17:14:43 30° 262° (W) 17:18:27 436.750
STARS 28 Jul 17:14:25 17:18:40 47° 289° (WNW) 17:22:54 437.465
PCSat 28 Jul 17:19:07 17:21:36 13° 29° (NNE) 17:24:16 145.827
CUTE-I 28 Jul 17:24:21 17:28:29 24° 63° (ENE) 17:32:44 437.470
JAS-2 28 Jul 17:24:54 17:28:29 15° 279° (W) 17:31:57 435.910
Cosmos 2499 28 Jul 17:31:13 17:35:05 14° 51° (NE) 17:39:33 435.465 / 435.565
KKS-1 28 Jul 17:31:25 17:34:51 22° 295° (WNW) 17:38:12 437.445
HORYU 2 28 Jul 17:39:16 17:41:19 13° 272° (W) 17:43:10 437.375
MOZHAYETS 4 28 Jul 17:50:57 17:55:38 88° 103° (ESE) 18:00:15
Cubesat XI-IV 28 Jul 18:05:48 18:10:58 51° 70° (ENE) 18:16:11 437.490
AO-7 28 Jul 18:20:51 18:25:45 16° 275° (W) 18:30:08 29.400- 29.500
SO-50 28 Jul 18:29:56 18:34:25 33° 42° (NE) 18:38:52 436.795
HO-68 28 Jul 18:41:48 18:45:24 15° 49° (NE) 18:49:19 435.675
GONETS M04 28 Jul 18:43:14 18:51:54 71° 266° (W) 19:00:33
BRITE-PL 28 Jul 18:55:51 18:58:41 17° 65° (ENE) 19:01:34 437.365/2234.400
PCSat 28 Jul 19:01:08 19:06:25 50° 51° (NE) 19:11:42 145.827
CUTE-I 28 Jul 19:03:00 19:08:15 54° 260° (W) 19:13:31 437.470
PRISM 28 Jul 19:14:51 19:16:39 13° 89° (E) 19:18:39 437.425
Cosmos 2499 28 Jul 19:21:59 19:30:29 60° 75° (ENE) 19:39:15 435.465 / 435.565
GOMX 1 28 Jul 19:27:19 19:30:26 21° 66° (ENE) 19:33:35 467.674
MOZHAYETS 4 28 Jul 19:30:14 19:32:13 12° 300° (WNW) 19:34:00
CUBESAT XI-V 28 Jul 19:33:34 19:38:14 89° 116° (ESE) 19:42:49 437.345
DOVE 4 28 Jul 19:36:29 19:38:55 16° 64° (ENE) 19:41:31 437.250
Cubesat XI-IV 28 Jul 19:47:05 19:51:24 23° 268° (W) 19:55:36 437.490
STRAND 1 28 Jul 20:02:27 20:07:27 52° 100° (E) 20:12:25 437.568
COMPASS 1 28 Jul 20:05:46 20:08:31 18° 64° (ENE) 20:11:23 437.405
CUTE 1.7 + AOD 2 28 Jul 20:09:15 20:12:53 28° 68° (ENE) 20:16:36 437.475
SO-50 28 Jul 20:10:24 20:15:07 43° 241° (WSW) 20:19:42 436.795
SEEDS 28 Jul 20:13:12 20:16:39 25° 68° (ENE) 20:20:13 437.485
CINEMA 3 28 Jul 20:15:17 20:18:03 18° 65° (ENE) 20:20:58 145.822/145.860
CANX-2 28 Jul 20:16:40 20:20:34 36° 70° (ENE) 20:24:33 2200.000
HO-68 28 Jul 20:24:55 20:31:56 65° 69° (ENE) 20:39:02 435.675
BRITE-PL 28 Jul 20:32:35 20:36:59 50° 261° (W) 20:41:08 437.365/2234.400
GONETS M04 28 Jul 20:42:58 20:47:18 14° 285° (WNW) 20:51:04
PCSat 28 Jul 20:45:03 20:49:36 27° 250° (WSW) 20:54:02 145.827
PRISM 28 Jul 20:48:28 20:52:33 59° 288° (WNW) 20:56:35 437.425
AAUSAT CUBESAT 2 28 Jul 20:49:25 20:53:21 40° 71° (ENE) 20:57:20 437.432
VERMONT LUNAR 28 Jul 20:50:30 20:52:49 19° 160° (SSE) 20:55:09 437.305
ZACube-1 28 Jul 20:52:14 20:54:14 14° 62° (ENE) 20:56:26 437.345
GOMX 1 28 Jul 21:04:23 21:08:25 38° 263° (W) 21:12:20 467.674
DELFI C3 28 Jul 21:04:58 21:07:49 19° 66° (ENE) 21:10:48 145.870
UWE-3 28 Jul 21:05:33 21:08:48 23° 66° (ENE) 21:12:12 435.000/436.395/437.385
CUBEBUG 2 28 Jul 21:12:04 21:15:47 33° 69° (ENE) 21:19:37 437.445
DOVE 4 28 Jul 21:12:17 21:16:22 51° 260° (W) 21:20:26 437.250
CUBESAT XI-V 28 Jul 21:13:10 21:15:01 12° 300° (WNW) 21:16:39 437.345
FUNcube-1 28 Jul 21:14:27 21:17:36 22° 66° (ENE) 21:20:54 145.935
Cosmos 2499 28 Jul 21:15:44 21:23:19 35° 275° (W) 21:30:55 435.465 / 435.565
Oscar 11 28 Jul 21:33:11 21:37:25 55° 73° (ENE) 21:41:41 145.826/435.025
UKube-1 28 Jul 21:36:48 21:38:37 13° 60° (ENE) 21:40:35 .
PHONESAT 2.4 28 Jul 21:39:09 21:39:29 10° 150° (SSE) 21:39:53 2401.200-2431.200
COMPASS 1 28 Jul 21:39:46 21:43:50 49° 261° (W) 21:47:58 437.405
STRAND 1 28 Jul 21:42:21 21:46:21 23° 297° (WNW) 21:50:13 437.568
CUTE 1.7 + AOD 2 28 Jul 21:45:00 21:48:45 29° 266° (W) 21:52:29 437.475
SEEDS 28 Jul 21:48:31 21:52:21 32° 265° (W) 21:56:11 437.485
CINEMA 3 28 Jul 21:51:01 21:54:59 44° 262° (W) 21:59:00 145.822/145.860
CANX-2 28 Jul 21:53:15 21:56:37 22° 268° (W) 21:59:57 2200.000
M-CUBED/EXP-1 PRIME 28 Jul 21:56:27 22:00:02 21° 96° (E) 22:03:44 437.505
DX 1 28 Jul 21:57:01 22:00:17 22° 65° (ENE) 22:03:38 434.975-435.025
VELOX 1 28 Jul 21:57:37 21:59:42 14° 61° (ENE) 22:01:58 145.980
HUMSAT D 28 Jul 22:09:55 22:13:40 35° 70° (ENE) 22:17:30 437.325/437.525
RS-15 28 Jul 22:13:54 22:24:08 51° 113° (ESE) 22:34:50 29.354- 29.394
HO-68 28 Jul 22:14:20 22:20:16 27° 268° (W) 22:26:02 435.675
ZACube-1 28 Jul 22:25:57 22:30:06 66° 259° (W) 22:34:20 437.345
AAUSAT CUBESAT 2 28 Jul 22:26:02 22:29:08 19° 269° (W) 22:32:10 437.432
VERMONT LUNAR 28 Jul 22:26:12 22:29:07 34° 177° (S) 22:32:03 437.305
AUBIESAT-1 28 Jul 22:29:13 22:33:38 37° 101° (ESE) 22:38:00 437.475
DELFI C3 28 Jul 22:38:48 22:42:38 40° 262° (W) 22:46:31 145.870
UWE-3 28 Jul 22:41:21 22:45:11 34° 264° (W) 22:49:04 435.000/436.395/437.385
Cosmos 2491 28 Jul 22:48:13 22:55:00 25° 61° (ENE) 23:02:02 435.465 / 435.565
CUBEBUG 2 28 Jul 22:49:11 22:52:34 23° 267° (W) 22:55:57 437.445
FUNcube-1 28 Jul 22:49:50 22:53:44 37° 263° (W) 22:57:42 145.935
AISAT 28 Jul 22:51:17 22:55:28 45° 71° (ENE) 22:59:41 437.250
50 SAT 28 Jul 22:57:59 23:01:46 56° 74° (ENE) 23:05:38 437.505
UNISAT 6 28 Jul 23:06:51 23:10:55 29° 95° (E) 23:15:02 437.425
QB50P1 28 Jul 23:09:01 23:10:00 11° 87° (E) 23:11:14 145.935-145.965
DUCHIFAT 1 28 Jul 23:09:18 23:09:46 10° 86° (E) 23:10:31 145.980
UKube-1 28 Jul 23:09:52 23:14:12 77° 257° (WSW) 23:18:33 .
Oscar 11 28 Jul 23:11:24 23:14:00 15° 271° (W) 23:16:28 145.826/435.025
NANOSAT C BR1 28 Jul 23:11:34 23:12:54 11° 87° (E) 23:14:28 145.865
PHONESAT 2.4 28 Jul 23:13:45 23:16:48 28° 166° (SSE) 23:19:51 2401.200-2431.200
CUBEBUG 1 28 Jul 23:17:50 23:22:01 47° 71° (ENE) 23:26:13 437.445
YUBILEINY 28 Jul 23:19:36 23:22:21 12° 73° (ENE) 23:25:46 435.215
ESTCUBE 1 28 Jul 23:27:15 23:31:46 71° 74° (ENE) 23:36:19 437.505/2401.250
M-CUBED/EXP-1 PRIME 28 Jul 23:30:24 23:35:05 52° 293° (WNW) 23:39:42 437.505
ISS 28 Jul 23:31:17 23:34:29 65° 148° (SSE) 23:37:44 145.825
VELOX 1 28 Jul 23:31:19 23:35:44 74° 257° (WSW) 23:40:09 145.980
DX 1 28 Jul 23:32:11 23:36:18 41° 262° (W) 23:40:25 434.975-435.025
HUMSAT D 28 Jul 23:46:17 23:49:32 22° 268° (W) 23:52:44 437.325/437.525
POLYITAN 1 28 Jul 23:47:52 23:51:35 29° 95° (E) 23:55:22 437.675
TIGRISAT 28 Jul 23:51:28 23:56:09 78° 102° (ESE) 00:00:51 435.000
ANTELSAT 28 Jul 23:51:31 23:56:13 81° 103° (ESE) 00:00:56 437.575/2403.000
AIST 1 28 Jul 23:54:27 23:58:41 58° 78° (ENE) 00:02:52
VERMONT LUNAR 29 Jul 00:02:46 00:05:30 27° 193° (SSW) 00:08:13 437.305
AUBIESAT-1 29 Jul 00:04:03 00:08:12 30° 298° (WNW) 00:12:16 437.475
POPSAT HIP 1 29 Jul 00:06:20 00:10:25 44° 99° (E) 00:14:31 437.405
SPROUT 29 Jul 00:08:56 00:13:03 49° 72° (ENE) 00:17:12 437.525
QB50P2 29 Jul 00:12:54 00:17:06 55° 100° (E) 00:21:17 145.880/145.840
RS-15 29 Jul 00:25:44 00:36:31 57° 318° (NW) 00:47:45 29.354- 29.394
BEESAT 3 29 Jul 00:27:10 00:30:25 24° 115° (ESE) 00:33:46 437.485
AISAT 29 Jul 00:29:04 00:32:18 19° 269° (W) 00:35:24 437.250
BUGSAT 1 29 Jul 00:31:10 00:35:07 51° 100° (E) 00:39:06 437.445
50 SAT 29 Jul 00:35:03 00:36:47 12° 272° (W) 00:38:20 437.505
TISAT 1 29 Jul 00:36:06 00:40:13 61° 73° (ENE) 00:44:21 437.305
DUCHIFAT 1 29 Jul 00:41:57 00:46:12 78° 285° (WNW) 00:50:25 145.980
QB50P1 29 Jul 00:42:12 00:46:27 74° 286° (WNW) 00:50:42 145.935-145.965
UNISAT 6 29 Jul 00:43:30 00:47:41 33° 291° (WNW) 00:51:51 437.425
Cosmos 2491 29 Jul 00:44:17 00:53:02 79° 263° (W) 01:01:43 435.465 / 435.565
NANOSAT C BR1 29 Jul 00:45:03 00:49:17 70° 286° (WNW) 00:53:30 145.865
PHONESAT 2.4 29 Jul 00:51:07 00:54:23 38° 182° (S) 00:57:40 2401.200-2431.200
CUBEBUG 1 29 Jul 00:55:36 00:58:39 18° 269° (W) 01:01:35 437.445
BEESAT 29 Jul 01:02:17 01:06:02 24° 65° (ENE) 01:09:54 436.000
ESTCUBE 1 29 Jul 01:07:03 01:09:13 13° 273° (W) 01:11:09 437.505/2401.250
ISS 29 Jul 01:08:06 01:11:06 32° 346° (NNW) 01:14:05 145.825
YUBILEINY 29 Jul 01:09:02 01:17:33 64° 93° (E) 01:26:12 435.215
BEESAT 2 29 Jul 01:18:33 01:22:36 62° 122° (ESE) 01:26:42 435.950
SWISSCUBE 29 Jul 01:21:29 01:25:53 38° 68° (ENE) 01:30:20 437.505
POLYITAN 1 29 Jul 01:23:47 01:27:27 28° 292° (WNW) 01:31:04 437.675
TIGRISAT 29 Jul 01:29:51 01:32:21 14° 299° (WNW) 01:34:41 435.000
ANTELSAT 29 Jul 01:30:02 01:32:26 14° 299° (WNW) 01:34:40 437.575/2403.000
AIST 1 29 Jul 01:33:49 01:35:52 13° 275° (W) 01:37:43
ITUPSAT 1 29 Jul 01:40:16 01:44:55 51° 71° (ENE) 01:49:37 437.325
POPSAT HIP 1 29 Jul 01:42:57 01:46:01 19° 295° (WNW) 01:48:59 437.405
Oscar 19 29 Jul 01:46:00 01:49:59 23° 92° (E) 01:54:05 437.125/150
SPROUT 29 Jul 01:46:38 01:49:27 17° 270° (W) 01:52:07 437.525
QB50P2 29 Jul 01:49:55 01:52:37 16° 297° (WNW) 01:55:11 145.880/145.840
BEESAT 3 29 Jul 02:04:20 02:08:12 39° 313° (NW) 02:12:04 437.485
BUGSAT 1 29 Jul 02:07:44 02:10:14 16° 296° (WNW) 02:12:37 437.445
TISAT 1 29 Jul 02:14:24 02:16:27 13° 272° (W) 02:18:17 437.305
Gurwin Techsat 1B 29 Jul 02:16:01 02:18:23 13° 86° (E) 02:21:01 435.225
O/OREOS (USA 219) 29 Jul 02:16:34 02:20:26 30° 105° (ESE) 02:24:22 437.305
AIST 2 29 Jul 02:25:49 02:30:03 72° 123° (ESE) 02:34:19 435.215
Cosmos 2504 29 Jul 02:26:39 02:31:45 22° 81° (E) 02:37:19 435.465 / 435.565
PHONESAT 2.4 29 Jul 02:29:06 02:31:56 23° 199° (SSW) 02:34:44 2401.200-2431.200
STARS 29 Jul 02:37:52 02:41:09 22° 65° (ENE) 02:44:34 437.465
BEESAT 29 Jul 02:39:05 02:43:39 44° 262° (W) 02:48:15 436.000
RS-15 29 Jul 02:42:37 02:52:07 30° 350° (N) 03:01:54 29.354- 29.394
Cosmos 2491 29 Jul 02:43:27 02:48:36 17° 284° (WNW) 02:53:15 435.465 / 435.565
JAS-2 29 Jul 02:44:26 02:48:28 15° 81° (E) 02:53:01 435.910
ISS 29 Jul 02:45:17 02:48:06 26° 6° (N) 02:50:55 145.825
KKS-1 29 Jul 02:54:13 02:58:28 50° 71° (ENE) 03:02:46 437.445
BEESAT 2 29 Jul 02:57:56 03:01:02 20° 322° (NW) 03:04:06 435.950
ITAMSAT 1 29 Jul 02:58:30 03:02:54 28° 94° (E) 03:07:22 435.822/435.867
SWISSCUBE 29 Jul 02:59:46 03:03:51 26° 266° (W) 03:07:52 437.505
YUBILEINY 29 Jul 03:07:29 03:15:07 32° 295° (WNW) 03:22:38 435.215
ITUPSAT 1 29 Jul 03:19:36 03:23:09 20° 269° (W) 03:26:35 437.325
MOZHAYETS 4 29 Jul 03:20:22 03:22:34 14° 61° (ENE) 03:24:58
Oscar 19 29 Jul 03:24:39 03:29:39 50° 290° (WNW) 03:34:38 437.125/150
HORYU 2 29 Jul 03:51:01 03:52:29 12° 87° (E) 03:54:12 437.375
Gurwin Techsat 1B 29 Jul 03:53:49 03:59:10 85° 286° (WNW) 04:04:30 435.225
O/OREOS (USA 219) 29 Jul 03:55:48 03:59:49 31° 304° (NW) 04:03:51 437.305
AIST 2 29 Jul 04:06:00 04:09:06 19° 323° (NW) 04:12:09 435.215
STARS 29 Jul 04:13:16 04:17:23 40° 262° (W) 04:21:31 437.465
Cosmos 2504 29 Jul 04:16:06 04:23:10 71° 282° (WNW) 04:30:46 435.465 / 435.565
ISS 29 Jul 04:21:42 04:24:56 61° 26° (NNE) 04:28:09 145.825
AO-7 29 Jul 04:22:40 04:29:57 33° 94° (E) 04:37:20 29.400- 29.500
JAS-2 29 Jul 04:27:07 04:34:53 73° 101° (ESE) 04:42:44 435.910
KKS-1 29 Jul 04:32:24 04:35:27 17° 270° (W) 04:38:19 437.445
ITAMSAT 1 29 Jul 04:37:41 04:42:33 40° 292° (WNW) 04:47:20 435.822/435.867
DANDE 29 Jul 04:45:02 04:46:58 15° 96° (E) 04:48:48 436.750
MOZHAYETS 4 29 Jul 04:54:34 04:59:13 80° 257° (WSW) 05:03:54
RS-15 29 Jul 04:58:40 05:08:52 35° 23° (NNE) 05:19:37 29.354- 29.394
CUBESAT XI-V 29 Jul 05:04:04 05:06:27 14° 61° (ENE) 05:09:00 437.345
HORYU 2 29 Jul 05:25:14 05:29:46 77° 285° (WNW) 05:34:15 437.375
CUSAT 1 29 Jul 05:30:01 05:33:04 70° 281° (W) 05:35:44 437.405
Gurwin Techsat 1B 29 Jul 05:35:42 05:38:26 14° 303° (WNW) 05:40:57 435.225
STRAND 1 29 Jul 05:44:18 05:46:51 14° 58° (ENE) 05:49:37 437.568
GONETS M04 29 Jul 05:51:43 05:58:41 29° 83° (E) 06:05:53
ISS 29 Jul 05:58:31 06:01:07 22° 222° (SW) 06:03:39 145.825
PRISM 29 Jul 06:07:00 06:09:11 14° 62° (ENE) 06:11:32 437.425
JAS-2 29 Jul 06:12:55 06:19:21 29° 300° (WNW) 06:25:43 435.910
Cosmos 2504 29 Jul 06:13:22 06:17:15 14° 307° (NW) 06:20:50 435.465 / 435.565
AO-7 29 Jul 06:15:04 06:23:16 61° 295° (WNW) 06:31:22 29.400- 29.500
Cubesat XI-IV 29 Jul 06:22:06 06:25:25 17° 88° (E) 06:28:55 437.490
DANDE 29 Jul 06:27:19 06:30:00 21° 285° (WNW) 06:32:17 436.750
CUBESAT XI-V 29 Jul 06:38:39 06:43:21 77° 259° (WSW) 06:48:03 437.345
RS-15 29 Jul 07:11:43 07:23:30 79° 52° (NE) 07:35:44 29.354- 29.394
CUTE-I 29 Jul 07:17:52 07:23:05 52° 100° (E) 07:28:16 437.470
STRAND 1 29 Jul 07:20:15 07:25:24 89° 224° (SW) 07:30:36 437.568
PRISM 29 Jul 07:40:01 07:44:11 62° 258° (WSW) 07:48:21 437.425
GONETS M04 29 Jul 07:46:17 07:54:58 66° 283° (WNW) 08:03:37
BEESAT 2 29 Jul 07:59:01 08:01:02 13° 32° (NNE) 08:03:09 435.950
Cubesat XI-IV 29 Jul 08:00:48 08:06:07 69° 288° (WNW) 08:11:24 437.490
Cosmos 2499 29 Jul 08:01:42 08:08:25 41° 87° (E) 08:15:43 435.465 / 435.565
AO-7 29 Jul 08:09:35 08:14:33 17° 316° (NW) 08:19:12 29.400- 29.500
BRITE-PL 29 Jul 08:34:27 08:38:28 38° 98° (E) 08:42:42 437.365/2234.400
BEESAT 3 29 Jul 08:43:05 08:46:44 31° 45° (NE) 08:50:20 437.485
M-CUBED/EXP-1 PRIME 29 Jul 08:46:06 08:49:41 32° 62° (ENE) 08:53:34 437.505
CUTE-I 29 Jul 08:58:36 09:02:53 24° 297° (WNW) 09:07:01 437.470
GOMX 1 29 Jul 09:02:53 09:07:08 46° 99° (E) 09:11:38 467.674
STRAND 1 29 Jul 09:03:27 09:05:27 12° 275° (W) 09:07:08 437.568
AIST 2 29 Jul 09:08:11 09:10:44 16° 34° (NE) 09:13:21 435.215
DOVE 4 29 Jul 09:08:23 09:12:27 33° 96° (E) 09:16:47 437.250
AUBIESAT-1 29 Jul 09:18:27 09:22:23 59° 68° (ENE) 09:26:40 437.475
ANTELSAT 29 Jul 09:19:38 09:20:42 11° 59° (ENE) 09:22:00 437.575/2403.000
TIGRISAT 29 Jul 09:19:47 09:20:27 10° 59° (ENE) 09:21:22 435.000
COMPASS 1 29 Jul 09:21:29 09:24:50 23° 93° (E) 09:28:13 437.405
RS-15 29 Jul 09:24:59 09:35:09 34° 253° (WSW) 09:45:14 29.354- 29.394
CUTE 1.7 + AOD 2 29 Jul 09:27:32 09:31:37 41° 98° (E) 09:35:41 437.475
SEEDS 29 Jul 09:30:22 09:34:19 35° 96° (E) 09:38:15 437.485
CANX-2 29 Jul 09:35:16 09:39:31 55° 99° (E) 09:43:45 2200.000
BEESAT 2 29 Jul 09:35:45 09:39:51 73° 52° (NE) 09:43:53 435.950
Cubesat XI-IV 29 Jul 09:43:36 09:45:22 11° 305° (NW) 09:46:51 437.490
